Find OneWeb SL0492

NORAD ID: 54114 Int'l Des: 2022-138 Owner: ONEWEBN Country: UK Constellation: oneweb operational
LEOCIRCULARPOLARONEWEB_TYPE

Live Position

Loading 3D Globe...

About OneWeb SL0492

Description loading...

Upcoming Passes

Passes for default location (London). Set your location on the main map for personalized predictions.

Altitude History

Loading altitude history...

Two-Line Element Set

1 54114U 22138B 26107.27896171 .00000050 00000-0 92606-4 0 9990
2 54114 87.9163 317.1165 0001851 79.7975 280.3367 13.19724556168809
Epoch: Apr 17, 2026 • Age: 10 hours

Current Status

Altitude 1194.8 km
Velocity 7.26 km/s
Sub-Earth Point 59.21°N, 41.69°E
Launch Date Oct 22, 2022
Age 3.4 years
Type internet

Technical Details

Classification Payload
Mass 148.00 kg
Dry Mass 140.00 kg
Total Mass 148.00 kg
Length 1.30 m
Diameter 1.00 m
Span 5.00 m
Shape Trapezoid+2 pan
Manufacturer ONEWUS
Bus Type ARROW
Phase Status In Orbit
Owner/State ONEWEBN/UK

Most Searched